FW7706 Weather Reports


time (UTC)temp
C
wind
direction
speed
KPH
gust
KPH
rain 1hr
cm
rain 24hr
cm
rain mn
cm
humidity
%
barometer
mb
20260505140507 -17 184 6.4 11.3 0.00 0.00 0.00 1006.0
20260505124921 -17 207 3.2 4.8 0.00 0.00 0.00 1005.7
20260505124417 -17 216 4.8 8.0 0.00 0.00 0.00 1005.7
20260505123914 -17 185 8.0 11.3 0.00 0.00 0.00 1005.3
20260505123410 -17 192 4.8 8.0 0.00 0.00 0.00 1005.7
20260505122906 -17 196 4.8 8.0 0.00 0.00 0.00 1005.3
20260505122404 -17 186 4.8 8.0 0.00 0.00 0.00 1005.7
20260505121900 -17 171 6.4 8.0 0.00 0.00 0.00 1005.7
20260505121357 -17 178 3.2 4.8 0.00 0.00 0.00 1005.7
20260505120853 -17 192 3.2 3.2 0.00 0.00 0.00 1005.7
20260505120349 -17 208 1.6 1.6 0.00 0.00 0.00 1005.7
20260505115848 -17 215 6.4 11.3 0.00 0.00 0.00 1005.3
20260505115346 -17 228 1.6 3.2 0.00 0.00 0.00 1005.3
20260505114843 -17 224 3.2 3.2 0.00 0.00 0.00 1005.3
20260505114340 -17 215 3.2 3.2 0.00 0.00 0.00 1005.7
20260505113836 -17 200 4.8 4.8 0.00 0.00 0.00 1005.0
20260505113333 -17 169 4.8 4.8 0.00 0.00 0.00 1005.3
20260505112828 -17 205 3.2 4.8 0.00 0.00 0.00 1005.3
20260505112326 -17 187 3.2 3.2 0.00 0.00 0.00 1005.3
20260505111821 -17 228 8.0 9.7 0.00 0.00 0.00 1005.3
20260505111317 -17 212 4.8 4.8 0.00 0.00 0.00 1005.0
20260505110813 -17 207 6.4 8.0 0.00 0.00 0.00 1005.0
20260505110311 -17 191 3.2 4.8 0.00 0.00 0.00 1005.0
20260505101745 -17 197 3.2 3.2 0.00 0.00 0.00 1005.0
20260505101241 -17 199 4.8 4.8 0.00 0.00 0.00 1005.3
20260505100738 -17 178 6.4 9.7 0.00 0.00 0.00 1005.3
20260505100234 -17 177 6.4 9.7 0.00 0.00 0.00 1005.3
20260505095729 -17 208 8.0 11.3 0.00 0.00 0.00 1005.3
20260505095228 -17 210 6.4 11.3 0.00 0.00 0.00 1005.7
20260505094723 -17 173 4.8 8.0 0.00 0.00 0.00 1005.3
20260505094220 -17 209 3.2 3.2 0.00 0.00 0.00 1005.3
20260505093716 -17 212 3.2 3.2 0.00 0.00 0.00 1005.3
20260505093214 -17 184 4.8 8.0 0.00 0.00 0.00 1005.3
20260505092710 -17 252 8.0 9.7 0.00 0.00 0.00 1005.3
20260505092209 -17 224 4.8 4.8 0.00 0.00 0.00 1005.3
20260505091706 -17 189 6.4 9.7 0.00 0.00 0.00 1005.7
20260505091204 -17 175 4.8 4.8 0.00 0.00 0.00 1005.3
20260505090701 -17 189 4.8 4.8 0.00 0.00 0.00 1005.7
20260505090159 -17 208 3.2 3.2 0.00 0.00 0.00 1005.7
20260505085656 -17 200 4.8 4.8 0.00 0.00 0.00 1005.3
20260505085155 -17 197 4.8 8.0 0.00 0.00 0.00 1005.7
20260505084652 -17 173 6.4 8.0 0.00 0.00 0.00 1005.3
20260505084150 -17 181 9.7 11.3 0.00 0.00 0.00 1005.3
20260505083647 -17 187 4.8 8.0 0.00 0.00 0.00 1005.3
20260505083144 -17 225 3.2 3.2 0.00 0.00 0.00 1005.3
20260505082639 -17 202 4.8 4.8 0.00 0.00 0.00 1005.7
20260505082137 -17 185 4.8 8.0 0.00 0.00 0.00 1005.7
20260505081632 -17 168 8.0 11.3 0.00 0.00 0.00 1005.7
20260505081131 -17 222 3.2 3.2 0.00 0.00 0.00 1005.7
20260505080627 -17 196 3.2 3.2 0.00 0.00 0.00 1005.7
20260505080123 -17 183 3.2 4.8 0.00 0.00 0.00 1006.0
20260505075620 -17 168 4.8 8.0 0.00 0.00 0.00 1006.0
20260505075116 -17 220 6.4 9.7 0.00 0.00 0.00 1005.7
20260505074613 -17 179 4.8 8.0 0.00 0.00 0.00 1006.0
20260505074110 -17 163 8.0 9.7 0.00 0.00 0.00 1006.0
20260505073608 -17 196 4.8 8.0 0.00 0.00 0.00 1006.0
20260505073106 -17 200 6.4 8.0 0.00 0.00 0.00 1006.0
20260505072601 -17 235 4.8 4.8 0.00 0.00 0.00 1006.0
20260505072058 -17 227 3.2 3.2 0.00 0.00 0.00 1006.4
20260505071553 -17 201 4.8 4.8 0.00 0.00 0.00 1006.4
20260505071052 -17 191 3.2 4.8 0.00 0.00 0.00 1006.0
20260505070548 -17 190 4.8 9.7 0.00 0.00 0.00 1006.0
20260505070044 -17 193 8.0 12.9 0.00 0.00 0.00 1006.0
20260505065540 -17 181 1.6 3.2 0.00 0.00 0.00 1006.4
20260505065037 -17 141 4.8 4.8 0.00 0.00 0.00 1006.8
20260505064534 -17 205 4.8 4.8 0.00 0.00 0.00 1006.4
20260505064033 -17 190 4.8 4.8 0.00 0.00 0.00 1006.8
20260505063530 -17 185 4.8 4.8 0.00 0.00 0.00 1006.8
20260505063025 -17 214 4.8 4.8 0.00 0.00 0.00 1006.8
20260505062522 -17 196 4.8 4.8 0.00 0.00 0.00 1006.8
20260505062020 -17 189 3.2 4.8 0.00 0.00 0.00 1006.8
20260505061517 -17 230 4.8 8.0 0.00 0.00 0.00 1006.8
20260505061015 -17 174 4.8 8.0 0.00 0.00 0.00 1006.8
20260505060512 -17 175 4.8 8.0 0.00 0.00 0.00 1007.1
20260505060009 -17 204 4.8 4.8 0.00 0.00 0.00 1007.1
20260505055504 -17 191 6.4 8.0 0.00 0.00 0.00 1007.1
20260505055001 -17 200 3.2 3.2 0.00 0.00 0.00 1006.8
20260505054458 -17 192 3.2 3.2 0.00 0.00 0.00 1006.8
20260505053956 -17 205 8.0 9.7 0.00 0.00 0.00 1006.8
20260505053453 -17 200 3.2 4.8 0.00 0.00 0.00 1007.5
20260505052950 -17 254 3.2 4.8 0.00 0.00 0.00 1007.1
20260505052447 -17 190 4.8 8.0 0.00 0.00 0.00 1007.1
20260505051944 -17 192 3.2 4.8 0.00 0.00 0.00 1007.1
20260505051441 -17 184 3.2 3.2 0.00 0.00 0.00 1007.1
20260505050939 -17 182 1.6 3.2 0.00 0.00 0.00 1007.5
20260505050437 -17 179 6.4 9.7 0.00 0.00 0.00 1007.5
20260505041405 -17 176 4.8 4.8 0.00 0.00 0.00 1007.5
20260505040901 -17 140 6.4 12.9 0.00 0.00 0.00 1007.5
20260505040359 -17 167 3.2 4.8 0.00 0.00 0.00 1007.8
20260505035855 -17 199 4.8 4.8 0.00 0.00 0.00 1007.8
20260505035351 -17 194 3.2 3.2 0.00 0.00 0.00 1007.8
20260505034849 -17 229 4.8 4.8 0.00 0.00 0.00 1007.8
20260505034345 -17 182 4.8 8.0 0.00 0.00 0.00 1008.1
20260505033843 -17 188 4.8 4.8 0.00 0.00 0.00 1007.8
20260505033339 -17 183 6.4 9.7 0.00 0.00 0.00 1007.5
20260505032838 -17 185 4.8 8.0 0.00 0.00 0.00 1007.8
20260505032334 -17 198 3.2 4.8 0.00 0.00 0.00 1007.8
20260505031831 -17 180 4.8 4.8 0.00 0.00 0.00 1007.8
20260505031327 -17 182 4.8 4.8 0.00 0.00 0.00 1007.8
20260505030825 -17 181 4.8 4.8 0.00 0.00 0.00 1007.8
20260505030321 -17 202 3.2 3.2 0.00 0.00 0.00 1008.1
20260505025816 -17 190 3.2 3.2 0.00 0.00 0.00 1008.1
20260505025314 -17 178 6.4 8.0 0.00 0.00 0.00 1008.1
20260505024812 -17 204 3.2 3.2 0.00 0.00 0.00 1008.1
20260505024310 -17 169 1.6 3.2 0.00 0.00 0.00 1008.1
20260505023807 -17 169 4.8 4.8 0.00 0.00 0.00 1008.1
20260505023304 -17 178 4.8 4.8 0.00 0.00 0.00 1007.8
20260505022801 -17 176 3.2 3.2 0.00 0.00 0.00 1007.8
20260505022258 -17 174 3.2 3.2 0.00 0.00 0.00 1007.8
20260505021755 -17 140 6.4 8.0 0.00 0.00 0.00 1007.8
20260505021251 -17 171 3.2 4.8 0.00 0.00 0.00 1007.5
20260505020747 -17 178 4.8 4.8 0.00 0.00 0.00 1007.8
20260505020243 -17 199 6.4 8.0 0.00 0.00 0.00 1007.5
20260505015740 -17 192 3.2 3.2 0.00 0.00 0.00 1007.8
20260505015237 -17 191 3.2 4.8 0.00 0.00 0.00 1007.8
20260505014734 -17 198 3.2 3.2 0.00 0.00 0.00 1007.5
20260505014232 -17 198 4.8 4.8 0.00 0.00 0.00 1007.5
20260505013728 -17 183 3.2 3.2 0.00 0.00 0.00 1007.5
20260505013225 -17 183 4.8 4.8 0.00 0.00 0.00 1007.5
20260505012723 -17 216 4.8 8.0 0.00 0.00 0.00 1007.5
20260505012220 -17 194 4.8 4.8 0.00 0.00 0.00 1007.5
20260505011716 -17 174 3.2 3.2 0.00 0.00 0.00 1007.8
20260505011214 -17 185 3.2 4.8 0.00 0.00 0.00 1007.5
20260505010708 -17 214 3.2 3.2 0.00 0.00 0.00 1007.8
20260505010206 -17 205 1.6 1.6 0.00 0.00 0.00 1007.5
20260505005702 -17 190 3.2 3.2 0.00 0.00 0.00 1007.8
20260505005159 -17 190 4.8 4.8 0.00 0.00 0.00 1007.5
20260505004656 -17 176 4.8 4.8 0.00 0.00 0.00 1007.5
20260505004152 -17 197 3.2 3.2 0.00 0.00 0.00 1007.5
20260505003649 -17 185 3.2 3.2 0.00 0.00 0.00 1007.8
20260505003147 -17 185 1.6 3.2 0.00 0.00 0.00 1007.5
20260505002643 -17 198 1.6 3.2 0.00 0.00 0.00 1007.5
20260505002141 -17 183 1.6 3.2 0.00 0.00 0.00 1007.8
20260505001638 -17 182 3.2 3.2 0.00 0.00 0.00 1007.5
20260505001136 -17 185 6.4 8.0 0.00 0.00 0.00 1007.8
20260505000633 -17 177 3.2 3.2 0.00 0.00 0.00 1007.8
20260505000131 -17 181 3.2 3.2 0.00 0.00 0.00 1007.8
20260504235627 -17 192 4.8 8.0 0.00 0.00 0.00 1007.5
20260504235123 -17 209 4.8 4.8 0.00 0.00 0.00 1007.8
20260504234621 -17 187 6.4 8.0 0.00 0.00 0.00 1007.8
20260504234118 -17 197 4.8 8.0 0.00 0.00 0.00 1008.1
20260504233614 -17 197 4.8 4.8 0.00 0.00 0.00 1008.1
20260504233110 -17 194 4.8 8.0 0.00 0.00 0.00 1007.8
20260504232607 -17 223 4.8 8.0 0.00 0.00 0.00 1008.1
20260504232104 -17 180 4.8 4.8 0.00 0.00 0.00 1008.1
20260504231601 -17 192 8.0 9.7 0.00 0.00 0.00 1008.1
20260504231057 -17 203 4.8 4.8 0.00 0.00 0.00 1008.5
20260504230553 -17 178 3.2 3.2 0.00 0.00 0.00 1008.5
20260504230052 -17 178 6.4 8.0 0.00 0.00 0.00 1008.5
20260504225549 -17 234 8.0 9.7 0.00 0.00 0.00 1008.5
20260504225046 -17 190 6.4 9.7 0.00 0.00 0.00 1008.5
20260504224543 -17 199 9.7 11.3 0.00 0.00 0.00 1008.5
20260504224040 -17 172 8.0 11.3 0.00 0.00 0.00 1008.5
20260504223537 -17 149 6.4 9.7 0.00 0.00 0.00 1008.5
20260504223032 -17 217 8.0 11.3 0.00 0.00 0.00 1008.5
20260504222530 -17 174 9.7 11.3 0.00 0.00 0.00 1008.5
20260504222027 -17 214 3.2 3.2 0.00 0.00 0.00 1008.5
20260504221524 -17 179 9.7 12.9 0.00 0.00 0.00 1008.5
20260504221021 -17 182 4.8 8.0 0.00 0.00 0.00 1008.8
20260504220517 -17 173 4.8 9.7 0.00 0.00 0.00 1008.5
20260504220015 -17 173 8.0 11.3 0.00 0.00 0.00 1008.8
20260504215511 -17 176 8.0 9.7 0.00 0.00 0.00 1009.2
20260504215008 -17 242 3.2 3.2 0.00 0.00 0.00 1009.2
20260504214504 -17 214 3.2 4.8 0.00 0.00 0.00 1009.2
20260504214001 -17 209 3.2 4.8 0.00 0.00 0.00 1009.2
20260504213456 -17 245 4.8 8.0 0.00 0.00 0.00 1009.2
20260504212955 -17 204 4.8 8.0 0.00 0.00 0.00 1009.5
20260504212450 -17 221 3.2 4.8 0.00 0.00 0.00 1009.5
20260504211948 -17 162 3.2 3.2 0.00 0.00 0.00 1009.2
20260504211444 -17 188 4.8 9.7 0.00 0.00 0.00 1009.8
20260504210942 -17 154 4.8 4.8 0.00 0.00 0.00 1009.8
20260504210438 -17 238 4.8 8.0 0.00 0.00 0.00 1009.8
20260504205935 -17 197 6.4 9.7 0.00 0.00 0.00 1009.8
20260504205433 -17 202 3.2 3.2 0.00 0.00 0.00 1010.2
20260504204931 -17 189 4.8 4.8 0.00 0.00 0.00 1009.8
20260504204429 -17 171 8.0 11.3 0.00 0.00 0.00 1010.2
20260504203928 -17 165 8.0 9.7 0.00 0.00 0.00 1009.8
20260504203425 -17 173 3.2 4.8 0.00 0.00 0.00 1010.2
20260504202921 -17 193 4.8 4.8 0.00 0.00 0.00 1010.5
20260504202418 -17 210 3.2 8.0 0.00 0.00 0.00 1010.5
20260504201914 -17 194 1.6 1.6 0.00 0.00 0.00 1010.5
20260504201412 -17 216 4.8 4.8 0.00 0.00 0.00 1010.8
20260504200909 -17 209 4.8 4.8 0.00 0.00 0.00 1010.8
20260504200406 -17 195 6.4 8.0 0.00 0.00 0.00 1010.8
20260504195903 -17 174 8.0 11.3 0.00 0.00 0.00 1011.2
20260504195358 -17 180 6.4 8.0 0.00 0.00 0.00 1011.2
20260504194855 -17 202 6.4 11.3 0.00 0.00 0.00 1011.2
20260504194351 -17 195 4.8 4.8 0.00 0.00 0.00 1011.5
20260504193847 -17 185 8.0 9.7 0.00 0.00 0.00 1011.2
20260504193344 -17 229 4.8 8.0 0.00 0.00 0.00 1011.5
20260504192843 -17 155 4.8 8.0 0.00 0.00 0.00 1011.5
20260504192340 -17 188 8.0 11.3 0.00 0.00 0.00 1011.9
20260504191839 -17 204 3.2 4.8 0.00 0.00 0.00 1011.9
20260504191336 -17 191 6.4 8.0 0.00 0.00 0.00 1011.9
20260504190831 -17 182 8.0 11.3 0.00 0.00 0.00 1011.9
20260504190327 -17 187 4.8 8.0 0.00 0.00 0.00 1011.9
20260504185824 -17 208 3.2 4.8 0.00 0.00 0.00 1012.2
20260504185321 -17 200 8.0 11.3 0.00 0.00 0.00 1012.2
20260504184817 -17 205 11.3 12.9 0.00 0.00 0.00 1012.2
20260504184313 -17 163 11.3 12.9 0.00 0.00 0.00 1012.2
20260504183809 -17 244 8.0 12.9 0.00 0.00 0.00 1012.2
20260504183307 -17 182 8.0 11.3 0.00 0.00 0.00 1012.5
20260504182804 -17 177 4.8 8.0 0.00 0.00 0.00 1012.9
20260504182301 -17 231 4.8 8.0 0.00 0.00 0.00 1012.5
20260504181759 -17 186 8.0 11.3 0.00 0.00 0.00 1012.9
20260504181256 -17 209 8.0 11.3 0.00 0.00 0.00 1012.5
20260504180755 -17 174 6.4 8.0 0.00 0.00 0.00 1012.9
20260504180253 -17 194 3.2 4.8 0.00 0.00 0.00 1012.9
20260504175750 -17 215 4.8 8.0 0.00 0.00 0.00 1013.2
20260504175247 -17 138 6.4 9.7 0.00 0.00 0.00 1013.2
20260504174745 -17 163 8.0 11.3 0.00 0.00 0.00 1013.2
20260504174243 -17 169 6.4 9.7 0.00 0.00 0.00 1013.2
20260504173739 -17 217 4.8 8.0 0.00 0.00 0.00 1013.6
20260504173236 -17 232 8.0 9.7 0.00 0.00 0.00 1014.0
20260504172733 -17 149 6.4 11.3 0.00 0.00 0.00 1014.0
20260504172229 -17 190 6.4 9.7 0.00 0.00 0.00 1013.6
20260504171726 -17 269 6.4 9.7 0.00 0.00 0.00 1014.0
20260504171223 -17 269 6.4 8.0 0.00 0.00 0.00 1014.0
20260504170720 -17 189 6.4 9.7 0.00 0.00 0.00 1014.0
20260504170217 -17 227 4.8 9.7 0.00 0.00 0.00 1014.0
20260504160135 -17 215 4.8 8.0 0.00 0.00 0.00 1014.3
20260504151103 -17 183 4.8 8.0 0.00 0.00 0.00 1014.7
20260504150600 -17 169 4.8 4.8 0.00 0.00 0.00 1014.7